Regional Weather Roundup
Issued by NWS

Home | Current Version | Previous Version | Graphics & Text | Print | Product List | Glossary On
Versions: 1 2 3 4 5 6 7 8 9 10 11 12 13 14 15 16 17 18 19 20 21 22 23 24 25 26 27 28 29 30 31 32 33 34 35 36 37 38 39 40 41 42 43 44 45 46 47 48 49 50
577
ASUS43 KLOT 241708
RWRIL

ILLINOIS REGIONAL WEATHER ROUNDUP
NATIONAL WEATHER SERVICE CHICAGO/ROMEOVILLE IL
1200 PM CDT SUN JUL 24 2016

NOTE: "FAIR" INDICATES FEW OR NO CLOUDS BELOW 12,000 FEET WITH NO
SIGNIFICANT WEATHER AND/OR OBSTRUCTIONS TO VISIBILITY.

* THESE STATIONS ARE NOT UNDER NWS QUALITY CONTROL. THEY ALSO MAY NOT
  REPORT WEATHER SUCH AS PRECIPITATION OR FOG.

ILZ001-002-007-009-015-016-024-241800-
NORTHWEST ILLINOIS

CITY           SKY/WX    TMP DP  RH WIND       PRES   REMARKS
MOLINE         MOSUNNY   90  78  68 SW8       29.86R HX 104
STERLING*      SUNNY     90  81  74 SW8       29.87S HX 109
SAVANNA*       MOSUNNY   89  79  71 SW9       29.86S HX 104
$$

ILZ003-004-008-010-011-017-018-241800-
NORTH CENTRAL ILLINOIS

CITY           SKY/WX    TMP DP  RH WIND       PRES   REMARKS
ROCKFORD       MOSUNNY   87  79  76 S16       29.87S HX 101
FREEPORT*      PTSUNNY   88  78  73 SW15      29.87S HX 101
ROCHELLE*      SUNNY     87  81  81 S15       29.88F HX 105
DE KALB*       MOSUNNY   88  81  79 S17       29.90S HX 106
$$

ILZ005-006-012>014-019>023-241800-
NORTHEAST ILLINOIS

CITY           SKY/WX    TMP DP  RH WIND       PRES   REMARKS
CHICAGO-OHARE  PTSUNNY   87  77  72 SW14G22   29.88F HX  99
CHICAGO-MIDWAY PTSUNNY   89  77  67 SW15      29.89F HX 101
AURORA         CLOUDY    88  79  74 S13       29.90S HX 103
LANSING*       MOSUNNY   87  76  70 SW17      29.92F HX  97
JOLIET*        CLOUDY    89  81  75 SW12      29.91S HX 107
WAUKEGAN       MOSUNNY   89  77  67 S17       29.86F HX 101
DUPAGE AIRPORT CLOUDY    88  78  72 SW13G21   29.89F HX 101
WHEELING       MOSUNNY   87  76  69 S15G21    29.89S HX  97
MORRIS*        MOSUNNY   88  80  77 S9        29.90S HX 104
ROMEOVILLE*    CLOUDY    87  76  70 SW15      29.90F HX  98
NORTHERLY ISL    N/A     86  74  67 S15         N/A  HX  94
$$

LMZ740>746-241800-
SOUTHERN LAKE MICHIGAN

STATION/POSITION SKY/WX   TEMP    WIND        PRES    VSBY  WAVE
                          AIR SEA DIR/SP/G                  HT/PER
                          (F)     (DEG/KT/KT) (MB)    (MI)  (FT/S)
SOUTHERN BUOY              75 72  150/ 17/ 21 1011.3F         3/ 5
WILMETTE HARBOR            75 63  220/  8/ 10   N/A           2/ 2
HARRISON CRIB              81     190/ 19/ 20   N/A
BURNHAM HARBOR             87     200/ 12/ 17   N/A
CALUMET HARBOR             84     180/ 15/ 19 1012.2S
BURNS HARBOR               82     190/ 18/ 23 1013.9R
MICHIGAN CITY              83     150/ 13/ 17   N/A
MICHIGAN CITY 6N           80 73  200/ 10/ 16   N/A           2/ 2
ST. JOSEPH                 78 74   40/  6/ 10 1013.7R         2/ 3
$$

ILZ025>027-034>036-040-047-049-050-058-095>099-241800-
WEST-CENTRAL ILLINOIS

CITY           SKY/WX    TMP DP  RH WIND       PRES   REMARKS
QUINCY         SUNNY     93  78  61 S13       29.91F HX 108
GALESBURG*     SUNNY     88  78  72 S13       29.90S HX 102
MACOMB*        SUNNY     90  80  71 S12       29.92F HX 108
JACKSONVILLE*  SUNNY     89  81  76 S10       29.93S HX 107
PITTSFIELD*    SUNNY     91  82  76 S7        29.94S HX 112
$$

ILZ028>032-037-038-041>044-048-051>054-059>061-241800-
CENTRAL ILLINOIS

CITY           SKY/WX    TMP DP  RH WIND       PRES   REMARKS
PONTIAC        MOSUNNY   89  81  77 S15G21    29.93S HX 108
BLOOMINGTON    MOSUNNY   87  79  76 S14       29.95F HX 101
DECATUR        SUNNY     90  77  65 S13       29.96F HX 103
PEORIA         SUNNY     89  80  74 S15       29.91F HX 106
LACON*         SUNNY     89  78  69 S9G16     29.89F HX 103
LINCOLN*       MOSUNNY   89  81  76 S12G17    29.93F HX 108
SPRINGFIELD    SUNNY     91  79  67 S14       29.93F HX 107
TAYLORVILLE    MOSUNNY   88  80  77 NW8       29.97S HX 103
$$

ILZ033-039-045-046-055>057-062-063-241800-
EAST-CENTRAL ILLINOIS

CITY           SKY/WX    TMP DP  RH WIND       PRES   REMARKS
CHAMPAIGN      MOSUNNY   87  78  74 SW14      29.97F HX 100
MATTOON        SUNNY     88  76  67 S10       29.98F HX  99
PARIS*         MOSUNNY   88  80  77 S7        29.99F HX 105
$$

ILZ079-100>102-241800-
SOUTHWEST ILLINOIS

CITY           SKY/WX    TMP DP  RH WIND       PRES   REMARKS
ALTON          MOSUNNY   90  79  70 S9        29.96F HX 105
BELLEVILLE     SUNNY     91  80  69 VRB2      29.96S HX 109
CAHOKIA*       SUNNY     93  75  55 S5        29.95F HX 104
SPARTA*        SUNNY     89  77  65 S7        29.99S HX 101
$$

ILZ064>066-069>071-074>076-080>082-084>086-088>090-092>094-241800-
SOUTH-CENTRAL ILLINOIS

CITY           SKY/WX    TMP DP  RH WIND       PRES   REMARKS
CARBONDALE     MOSUNNY   90  75  61 S9        29.99S HX 100
CAIRO*         SUNNY     87  76  71 SW6       30.00S HX  98
EFFINGHAM*     MOSUNNY   90  78  68 S7        30.00S HX 103
MARION         PTSUNNY   91  77  62 S9        30.00F HX 105
MT. VERNON     SUNNY     93  75  55 S8        29.99F HX 104
CENTRALIA*     MOSUNNY   91  78  67 S7        29.98S HX 105
SALEM*         PTSUNNY   90  77  66 SW6       29.98F HX 102
METROPOLIS*    PTSUNNY   88  77  69 S3        30.01F HX  99
$$

ILZ067-068-072-073-078-083-087-091-241800-
SOUTHEAST ILLINOIS

CITY           SKY/WX    TMP DP  RH WIND       PRES   REMARKS
LAWRENCEVILLE  MOSUNNY   89  79  72 S8        29.99F HX 104
FLORA*         SUNNY     91  80  71 S8        29.99S HX 108
FAIRFIELD*     MOSUNNY   88  78  71 S3        29.99S HX 102
HARRISBURG*    SUNNY     89  78  69 SW8       30.00S HX 104
ROBINSON*      MOSUNNY   90  78  68 S6        29.99F HX 104
CARMI*         MOSUNNY   88  79  76 S6        29.99F HX 103
$$

ABBREVIATIONS USED IN REMARKS
   TC - TEMPERATURE IN CELSIUS
  WCI - WIND CHILL INDEX
   HX - HEAT INDEX
  VSB - VISIBILITY
$$





USA.gov is the U.S. government's official web portal to all federal, state and local government web resources and services.